| time (UTC) | temp C | wind direction | speed KPH | gust KPH | rain 1hr cm | rain 24hr cm | rain mn cm | humidity % | barometer mb |
| 20260507052729 | 10 | 11 | 8.0 | 12.9 | 0.00 | 8.79 | 0.10 | 92 | 1011.2 |
| 20260507052229 | 10 | 25 | 4.8 | 16.1 | 0.00 | 8.79 | 0.10 | 92 | 1011.2 |
| 20260507051724 | 10 | 27 | 6.4 | 16.1 | 0.00 | 8.79 | 0.10 | 92 | 1011.2 |
| 20260507051225 | 10 | 11 | 3.2 | 9.7 | 0.00 | 8.79 | 0.10 | 92 | 1011.1 |
| 20260507050843 | 10 | 355 | 4.8 | 9.7 | 0.00 | 8.79 | 0.10 | 92 | 1010.9 |
| 20260507050329 | 10 | 324 | 1.6 | 4.8 | 0.00 | 8.79 | 0.10 | 92 | 1011.0 |
| 20260507045733 | 10 | 360 | 1.6 | 4.8 | 0.00 | 8.89 | 0.10 | 92 | 1010.9 |
| 20260507045232 | 10 | 360 | 3.2 | 9.7 | 0.00 | 8.89 | 0.10 | 92 | 1010.9 |
| 20260507044731 | 10 | 336 | 4.8 | 6.4 | 0.00 | 8.89 | 0.10 | 92 | 1010.8 |
| 20260507044228 | 10 | 349 | 4.8 | 8.0 | 0.00 | 8.89 | 0.10 | 92 | 1010.7 |
| 20260507043726 | 10 | 355 | 3.2 | 6.4 | 0.00 | 8.89 | 0.10 | 92 | 1010.6 |
| 20260507043228 | 10 | 318 | 3.2 | 6.4 | 0.00 | 8.89 | 0.10 | 92 | 1010.6 |
| 20260507042727 | 10 | 344 | 4.8 | 6.4 | 0.00 | 8.89 | 0.10 | 92 | 1010.5 |
| 20260507042255 | 10 | 293 | 3.2 | 6.4 | 0.00 | 8.89 | 0.10 | 92 | 1010.3 |
| 20260507041752 | 10 | 303 | 1.6 | 12.9 | 0.00 | 8.89 | 0.10 | 92 | 1010.4 |
| 20260507041233 | 10 | 340 | 4.8 | 9.7 | 0.00 | 8.89 | 0.10 | 92 | 1010.4 |
| 20260507040732 | 10 | 349 | 4.8 | 9.7 | 0.00 | 8.89 | 0.10 | 92 | 1010.3 |
| 20260507040232 | 10 | 5 | 3.2 | 8.0 | 0.00 | 8.89 | 0.10 | 92 | 1010.4 |
| 20260507035732 | 10 | 321 | 4.8 | 9.7 | 0.00 | 11.91 | 0.10 | 92 | 1010.4 |
| 20260507035224 | 10 | 342 | 3.2 | 9.7 | 0.00 | 11.91 | 0.10 | 92 | 1010.3 |
| 20260507034812 | 10 | 344 | 4.8 | 9.7 | 0.00 | 11.91 | 0.10 | 92 | 1010.3 |
| 20260507034241 | 10 | 340 | 4.8 | 12.9 | 0.00 | 11.91 | 0.10 | 92 | 1010.2 |
| 20260507033741 | 10 | 360 | 6.4 | 12.9 | 0.00 | 11.91 | 0.10 | 92 | 1010.3 |
| 20260507033241 | 10 | 294 | 1.6 | 6.4 | 0.00 | 11.91 | 0.10 | 92 | 1010.3 |
| 20260507032742 | 10 | 355 | 3.2 | 6.4 | 0.00 | 11.91 | 0.10 | 92 | 1010.3 |
| 20260507032251 | 10 | 284 | 3.2 | 8.0 | 0.00 | 11.91 | 0.10 | 92 | 1010.1 |
| 20260507031751 | 10 | 343 | 4.8 | 9.7 | 0.00 | 11.91 | 0.10 | 92 | 1010.2 |
| 20260507031252 | 10 | 355 | 4.8 | 6.4 | 0.00 | 11.91 | 0.10 | 92 | 1010.2 |
| 20260507030725 | 10 | 322 | 3.2 | 8.0 | 0.00 | 11.91 | 0.10 | 92 | 1010.1 |
| 20260507030245 | 10 | 355 | 3.2 | 14.5 | 0.00 | 11.91 | 0.10 | 92 | 1010.2 |
| 20260507025729 | 10 | 333 | 6.4 | 14.5 | 0.00 | 14.91 | 0.10 | 92 | 1010.2 |
| 20260507025230 | 10 | 23 | 6.4 | 9.7 | 0.00 | 14.91 | 0.10 | 92 | 1010.3 |
| 20260507024729 | 10 | 20 | 4.8 | 14.5 | 0.00 | 14.91 | 0.10 | 92 | 1010.3 |
| 20260507024247 | 10 | 355 | 3.2 | 14.5 | 0.00 | 14.91 | 0.10 | 92 | 1010.2 |
| 20260507023726 | 10 | 26 | 6.4 | 9.7 | 0.00 | 14.91 | 0.10 | 92 | 1010.2 |
| 20260507023228 | 10 | 20 | 6.4 | 9.7 | 0.00 | 14.91 | 0.10 | 93 | 1010.3 |
| 20260507022754 | 10 | 28 | 6.4 | 11.3 | 0.00 | 14.91 | 0.10 | 93 | 1010.2 |
| 20260507022232 | 10 | 324 | 6.4 | 17.7 | 0.00 | 14.91 | 0.10 | 93 | 1010.3 |
| 20260507021732 | 10 | 33 | 6.4 | 17.7 | 0.00 | 14.91 | 0.10 | 93 | 1010.4 |
| 20260507021230 | 10 | 46 | 8.0 | 14.5 | 0.00 | 14.91 | 0.10 | 93 | 1010.4 |
| 20260507020731 | 10 | 69 | 4.8 | 14.5 | 0.00 | 14.91 | 0.10 | 93 | 1010.4 |
| 20260507020229 | 10 | 325 | 6.4 | 12.9 | 0.00 | 14.91 | 0.10 | 93 | 1010.3 |
| 20260507015730 | 10 | 15 | 6.4 | 12.9 | 0.00 | 14.91 | 0.10 | 93 | 1010.3 |
| 20260507015230 | 10 | 26 | 6.4 | 12.9 | 0.00 | 14.91 | 0.10 | 93 | 1010.3 |
| 20260507014753 | 10 | 22 | 4.8 | 8.0 | 0.00 | 14.91 | 0.10 | 93 | 1010.3 |
| 20260507014231 | 10 | 5 | 4.8 | 8.0 | 0.00 | 14.91 | 0.10 | 93 | 1010.2 |
| 20260507013730 | 10 | 350 | 4.8 | 8.0 | 0.00 | 14.91 | 0.10 | 93 | 1010.2 |
| 20260507013226 | 10 | 355 | 3.2 | 6.4 | 0.00 | 14.91 | 0.10 | 93 | 1010.2 |
| 20260507012751 | 10 | 22 | 3.2 | 6.4 | 0.00 | 14.91 | 0.10 | 93 | 1010.1 |
| 20260507012250 | 10 | 22 | 3.2 | 6.4 | 0.00 | 14.91 | 0.10 | 93 | 1010.1 |
| 20260507011747 | 10 | 245 | 1.6 | 4.8 | 0.00 | 14.91 | 0.10 | 93 | 1010.2 |
| 20260507011248 | 10 | 245 | 1.6 | 8.0 | 0.00 | 14.91 | 0.10 | 93 | 1010.1 |
| 20260507010749 | 10 | 334 | 1.6 | 9.7 | 0.00 | 14.91 | 0.10 | 92 | 1010.1 |
| 20260507010230 | 10 | 355 | 4.8 | 9.7 | 0.00 | 14.91 | 0.10 | 92 | 1010.0 |
| 20260507005749 | 10 | 10 | 4.8 | 8.0 | 0.00 | 15.01 | 0.10 | 92 | 1010.1 |
| 20260507005250 | 10 | 347 | 3.2 | 6.4 | 0.00 | 15.01 | 0.10 | 92 | 1010.1 |
| 20260507004751 | 10 | 322 | 3.2 | 6.4 | 0.00 | 15.01 | 0.10 | 92 | 1010.1 |
| 20260507004251 | 10 | 346 | 3.2 | 8.0 | 0.10 | 15.01 | 0.10 | 92 | 1010.0 |
| 20260507003748 | 10 | 332 | 3.2 | 9.7 | 0.10 | 15.01 | 0.10 | 92 | 1010.0 |
| 20260507003245 | 10 | 17 | 3.2 | 11.3 | 0.20 | 15.01 | 0.10 | 92 | 1009.9 |
| 20260507002741 | 10 | 11 | 3.2 | 11.3 | 0.20 | 15.01 | 0.10 | 92 | 1009.9 |
| 20260507002306 | 10 | 340 | 6.4 | 14.5 | 0.20 | 15.01 | 0.10 | 92 | 1009.9 |
| 20260507001738 | 10 | 11 | 4.8 | 20.9 | 0.20 | 15.01 | 0.10 | 92 | 1009.8 |
| 20260507001235 | 10 | 5 | 6.4 | 14.5 | 0.20 | 15.01 | 0.10 | 92 | 1010.0 |
| 20260507000725 | 10 | 24 | 4.8 | 9.7 | 0.20 | 15.01 | 0.10 | 92 | 1009.9 |
| 20260507000243 | 10 | 317 | 4.8 | 8.0 | 0.20 | 15.01 | 0.10 | 92 | 1010.1 |
| 20260506235811 | 10 | 351 | 4.8 | 8.0 | 0.20 | 15.01 | 0.10 | 92 | 1010.1 |
| 20260506235249 | 10 | 310 | 3.2 | 6.4 | 0.20 | 15.01 | 0.10 | 92 | 1010.1 |
| 20260506234806 | 10 | 314 | 4.8 | 6.4 | 0.20 | 15.01 | 0.10 | 92 | 1010.2 |
| 20260506233742 | 10 | 337 | 6.4 | 12.9 | 0.10 | 14.91 | 0.08 | 92 | 1009.8 |
| 20260506233241 | 10 | 26 | 6.4 | 16.1 | 0.00 | 14.81 | 0.05 | 92 | 1009.7 |
| 20260506232740 | 10 | 343 | 8.0 | 16.1 | 0.00 | 14.81 | 0.05 | 92 | 1009.8 |
| 20260506232237 | 10 | 314 | 4.8 | 14.5 | 0.10 | 14.81 | 0.05 | 92 | 1009.8 |
| 20260506231736 | 10 | 5 | 4.8 | 9.7 | 0.10 | 14.81 | 0.05 | 92 | 1010.0 |
| 20260506231234 | 11 | 325 | 4.8 | 9.7 | 0.10 | 14.81 | 0.05 | 92 | 1010.0 |
| 20260506230732 | 11 | 323 | 3.2 | 12.9 | 0.20 | 14.81 | 0.05 | 92 | 1009.9 |
| 20260506230229 | 10 | 347 | 6.4 | 16.1 | 0.20 | 14.81 | 0.05 | 92 | 1009.8 |
| 20260506225743 | 10 | 343 | 9.7 | 16.1 | 0.20 | 15.01 | 0.05 | 93 | 1009.7 |
| 20260506225311 | 11 | 5 | 8.0 | 14.5 | 0.20 | 15.01 | 0.05 | 93 | 1009.8 |
| 20260506224745 | 11 | 337 | 9.7 | 14.5 | 0.20 | 15.01 | 0.05 | 93 | 1009.8 |
| 20260506224243 | 10 | 355 | 8.0 | 14.5 | 0.20 | 15.01 | 0.05 | 93 | 1009.8 |
| 20260506223743 | 10 | 360 | 8.0 | 19.3 | 0.20 | 15.01 | 0.05 | 93 | 1009.8 |
| 20260506223239 | 10 | 355 | 8.0 | 16.1 | 0.20 | 15.01 | 0.05 | 93 | 1009.7 |
| 20260506222758 | 10 | 46 | 6.4 | 16.1 | 0.20 | 15.01 | 0.05 | 93 | 1009.7 |
| 20260506222258 | 11 | 22 | 8.0 | 16.1 | 0.10 | 14.91 | 0.03 | 93 | 1009.6 |
| 20260506221736 | 11 | 29 | 8.0 | 16.1 | 0.10 | 14.91 | 0.03 | 93 | 1009.6 |
| 20260506221234 | 11 | 335 | 6.4 | 16.1 | 0.10 | 14.91 | 0.03 | 93 | 1009.6 |
| 20260506220732 | 11 | 348 | 6.4 | 8.0 | 0.00 | 14.81 | 0.00 | 93 | 1009.7 |
| 20260506220231 | 11 | 309 | 3.2 | 8.0 | 0.00 | 14.81 | 0.00 | 93 | 1009.7 |
| 20260506215723 | 11 | 288 | 3.2 | 8.0 | 0.10 | 16.51 | 3.76 | 93 | 1009.5 |
| 20260506215223 | 11 | 329 | 4.8 | 8.0 | 0.10 | 16.51 | 3.76 | 93 | 1009.6 |
| 20260506214750 | 11 | 22 | 4.8 | 9.7 | 0.10 | 16.51 | 3.76 | 93 | 1009.5 |
| 20260506214228 | 11 | 5 | 6.4 | 9.7 | 0.20 | 16.51 | 3.76 | 93 | 1009.4 |
| 20260506213728 | 11 | 355 | 6.4 | 9.7 | 0.20 | 16.51 | 3.76 | 93 | 1009.4 |
| 20260506213227 | 11 | 323 | 4.8 | 8.0 | 0.20 | 16.51 | 3.76 | 93 | 1009.5 |
| 20260506212728 | 11 | 14 | 3.2 | 6.4 | 0.20 | 16.51 | 3.76 | 93 | 1009.4 |
| 20260506212229 | 11 | 320 | 3.2 | 8.0 | 0.20 | 16.51 | 3.76 | 93 | 1009.5 |
| 20260506211727 | 11 | 319 | 4.8 | 8.0 | 0.20 | 16.51 | 3.76 | 93 | 1009.5 |
| 20260506211225 | 11 | 360 | 4.8 | 8.0 | 0.20 | 16.51 | 3.76 | 93 | 1009.5 |
| 20260506210724 | 11 | 348 | 3.2 | 6.4 | 0.20 | 16.51 | 3.76 | 93 | 1009.6 |
| 20260506210240 | 11 | 300 | 3.2 | 6.4 | 0.20 | 16.51 | 3.76 | 93 | 1009.6 |
| 20260506205739 | 11 | 5 | 4.8 | 6.4 | 0.10 | 16.51 | 3.73 | 93 | 1009.6 |
| 20260506205236 | 11 | 302 | 1.6 | 4.8 | 0.10 | 16.51 | 3.73 | 93 | 1009.5 |
| 20260506204736 | 11 | 300 | 1.6 | 8.0 | 0.10 | 16.51 | 3.73 | 93 | 1009.5 |
| 20260506204234 | 11 | 300 | 3.2 | 8.0 | 0.00 | 16.41 | 3.71 | 93 | 1009.4 |
| 20260506203731 | 11 | 349 | 4.8 | 6.4 | 0.00 | 16.41 | 3.71 | 93 | 1009.2 |
| 20260506203229 | 11 | 355 | 3.2 | 6.4 | 0.00 | 16.41 | 3.71 | 93 | 1009.2 |
| 20260506202728 | 11 | 338 | 0.0 | 3.2 | 0.00 | 16.41 | 3.71 | 93 | 1009.2 |
| 20260506202258 | 10 | 338 | 0.0 | 3.2 | 0.00 | 16.41 | 3.71 | 93 | 1009.1 |
| 20260506201736 | 10 | 338 | 0.0 | 4.8 | 0.00 | 16.41 | 3.71 | 93 | 1009.2 |
| 20260506201235 | 10 | 338 | 1.6 | 4.8 | 0.00 | 16.41 | 3.71 | 93 | 1009.1 |
| 20260506200749 | 10 | 338 | 3.2 | 6.4 | 0.00 | 16.41 | 3.71 | 93 | 1009.0 |
| 20260506200225 | 10 | 338 | 3.2 | 8.0 | 0.00 | 16.41 | 3.71 | 92 | 1009.0 |
| 20260506195751 | 10 | 339 | 1.6 | 8.0 | 0.00 | 18.80 | 3.71 | 92 | 1008.9 |
| 20260506195250 | 10 | 342 | 3.2 | 8.0 | 0.00 | 18.80 | 3.71 | 92 | 1008.8 |
| 20260506194751 | 10 | 336 | 6.4 | 8.0 | 0.00 | 18.80 | 3.71 | 92 | 1008.8 |
| 20260506194250 | 10 | 340 | 1.6 | 4.8 | 0.00 | 18.80 | 3.71 | 92 | 1008.8 |
| 20260506193738 | 11 | 290 | 0.0 | 1.6 | 0.00 | 18.80 | 3.71 | 92 | 1008.8 |
| 20260506193238 | 11 | 290 | 0.0 | 3.2 | 0.00 | 18.80 | 3.71 | 92 | 1008.7 |
| 20260506192744 | 11 | 290 | 1.6 | 3.2 | 0.00 | 18.80 | 3.71 | 92 | 1008.8 |
| 20260506192238 | 11 | 290 | 1.6 | 4.8 | 0.00 | 18.80 | 3.71 | 92 | 1008.7 |
| 20260506191758 | 11 | 289 | 1.6 | 4.8 | 0.00 | 18.80 | 3.71 | 92 | 1008.5 |
| 20260506191235 | 11 | 323 | 3.2 | 8.0 | 0.61 | 18.80 | 3.71 | 92 | 1008.4 |
| 20260506190733 | 11 | 338 | 4.8 | 8.0 | 1.30 | 18.80 | 3.71 | 92 | 1008.2 |
| 20260506190230 | 11 | 355 | 4.8 | 8.0 | 1.70 | 18.80 | 3.71 | 92 | 1008.1 |
| 20260506185728 | 11 | 348 | 3.2 | 8.0 | 1.80 | 20.29 | 3.71 | 92 | 1008.0 |
| 20260506185257 | 11 | 288 | 4.8 | 11.3 | 1.91 | 20.29 | 3.71 | 92 | 1008.0 |
| 20260506184736 | 11 | 279 | 8.0 | 11.3 | 2.11 | 20.29 | 3.71 | 91 | 1007.8 |
| 20260506184235 | 11 | 197 | 4.8 | 12.9 | 2.21 | 20.29 | 3.71 | 91 | 1007.7 |
| 20260506183734 | 11 | 5 | 3.2 | 14.5 | 2.39 | 20.29 | 3.71 | 91 | 1007.4 |
| 20260506183246 | 11 | 34 | 8.0 | 14.5 | 2.59 | 20.29 | 3.71 | 91 | 1007.1 |
| 20260506182746 | 11 | 101 | 4.8 | 17.7 | 2.69 | 20.29 | 3.71 | 91 | 1007.0 |
| 20260506182245 | 11 | 59 | 8.0 | 19.3 | 2.90 | 20.29 | 3.71 | 91 | 1006.7 |
| 20260506181723 | 11 | 92 | 12.9 | 17.7 | 2.90 | 20.19 | 3.68 | 91 | 1006.1 |
| 20260506181223 | 11 | 74 | 6.4 | 11.3 | 2.39 | 19.61 | 3.56 | 91 | 1007.3 |
| 20260506180722 | 12 | 79 | 6.4 | 11.3 | 1.70 | 18.90 | 3.35 | 91 | 1008.0 |
| 20260506180250 | 12 | 232 | 3.2 | 11.3 | 1.40 | 18.59 | 3.28 | 90 | 1008.1 |
| 20260506175749 | 12 | 340 | 4.8 | 14.5 | 1.19 | 20.19 | 3.23 | 90 | 1007.9 |
| 20260506175238 | 12 | 252 | 8.0 | 16.1 | 1.19 | 20.19 | 3.23 | 90 | 1007.8 |
| 20260506174736 | 12 | 107 | 11.3 | 16.1 | 0.99 | 19.99 | 3.17 | 89 | 1007.4 |
| 20260506174229 | 12 | 130 | 6.4 | 12.9 | 0.89 | 19.89 | 3.15 | 88 | 1007.4 |
| 20260506173729 | 12 | 98 | 8.0 | 11.3 | 0.71 | 19.71 | 3.10 | 88 | 1007.0 |
| 20260506173228 | 12 | 165 | 4.8 | 11.3 | 0.51 | 19.51 | 3.05 | 87 | 1007.2 |
| 20260506172725 | 12 | 237 | 3.2 | 11.3 | 0.41 | 19.41 | 3.02 | 86 | 1006.9 |
| 20260506172225 | 13 | 191 | 3.2 | 16.1 | 0.20 | 19.20 | 2.97 | 85 | 1006.6 |
| 20260506171752 | 13 | 80 | 4.8 | 20.9 | 0.10 | 19.10 | 2.95 | 84 | 1006.6 |
| 20260506171250 | 13 | 355 | 12.9 | 20.9 | 0.00 | 19.00 | 2.92 | 83 | 1006.5 |
| 20260506170728 | 13 | 355 | 6.4 | 9.7 | 0.00 | 19.00 | 2.92 | 82 | 1006.7 |
| 20260506170228 | 13 | 328 | 6.4 | 12.9 | 0.00 | 19.00 | 2.92 | 82 | 1006.6 |
| 20260506165728 | 13 | 23 | 6.4 | 17.7 | 0.00 | 20.50 | 2.92 | 81 | 1006.6 |
| 20260506165245 | 13 | 40 | 8.0 | 17.7 | 0.00 | 20.50 | 2.92 | 81 | 1006.5 |
| 20260506164739 | 13 | 11 | 6.4 | 17.7 | 0.00 | 20.50 | 2.92 | 82 | 1006.5 |
| 20260506164238 | 13 | 355 | 8.0 | 16.1 | 0.00 | 20.50 | 2.92 | 82 | 1006.4 |
| 20260506163737 | 13 | 40 | 11.3 | 22.5 | 0.00 | 20.50 | 2.92 | 82 | 1006.2 |
| 20260506163235 | 13 | 360 | 11.3 | 22.5 | 0.00 | 20.50 | 2.92 | 82 | 1006.1 |
| 20260506162732 | 13 | 360 | 8.0 | 16.1 | 0.00 | 20.50 | 2.92 | 83 | 1006.1 |
| 20260506162300 | 13 | 14 | 6.4 | 14.5 | 0.00 | 20.50 | 2.92 | 84 | 1006.1 |
| 20260506161736 | 14 | 30 | 8.0 | 14.5 | 0.00 | 20.50 | 2.92 | 84 | 1006.1 |
| 20260506161235 | 14 | 348 | 8.0 | 14.5 | 0.00 | 20.50 | 2.92 | 84 | 1006.0 |
| 20260506160735 | 14 | 360 | 6.4 | 20.9 | 0.00 | 20.50 | 2.92 | 83 | 1005.8 |
| 20260506160233 | 14 | 18 | 9.7 | 20.9 | 0.00 | 20.50 | 2.92 | 82 | 1005.6 |
| 20260506155730 | 14 | 344 | 6.4 | 14.5 | 0.00 | 20.90 | 2.92 | 82 | 1005.6 |
| 20260506155224 | 14 | 360 | 6.4 | 14.5 | 0.00 | 20.90 | 2.92 | 82 | 1005.6 |
| 20260506154723 | 14 | 44 | 4.8 | 9.7 | 0.00 | 20.90 | 2.92 | 82 | 1005.7 |
| 20260506154241 | 14 | 13 | 6.4 | 11.3 | 0.00 | 20.90 | 2.92 | 81 | 1005.9 |
| 20260506153739 | 14 | 37 | 6.4 | 19.3 | 0.00 | 20.90 | 2.92 | 82 | 1006.0 |
| 20260506153238 | 14 | 355 | 3.2 | 19.3 | 0.00 | 20.90 | 2.92 | 82 | 1005.9 |
| 20260506152737 | 14 | 28 | 6.4 | 14.5 | 0.00 | 20.90 | 2.92 | 81 | 1006.0 |
| 20260506152235 | 15 | 28 | 4.8 | 22.5 | 0.00 | 20.90 | 2.92 | 83 | 1005.9 |
| 20260506151735 | 14 | 24 | 9.7 | 22.5 | 0.00 | 20.90 | 2.92 | 84 | 1006.1 |
| 20260506151234 | 14 | 23 | 6.4 | 22.5 | 0.00 | 20.90 | 2.92 | 85 | 1006.1 |
| 20260506150732 | 13 | 355 | 11.3 | 19.3 | 0.00 | 20.90 | 2.92 | 86 | 1006.0 |
| 20260506150252 | 13 | 23 | 8.0 | 17.7 | 0.00 | 20.90 | 2.92 | 87 | 1006.4 |
| 20260506145725 | 13 | 53 | 9.7 | 19.3 | 0.00 | 21.49 | 2.92 | 87 | 1006.4 |
| 20260506145244 | 13 | 350 | 11.3 | 19.3 | 0.00 | 21.49 | 2.92 | 88 | 1006.4 |
| 20260506144749 | 13 | 50 | 6.4 | 14.5 | 0.00 | 21.49 | 2.92 | 88 | 1006.4 |
| 20260506144246 | 13 | 360 | 6.4 | 12.9 | 0.00 | 21.49 | 2.92 | 89 | 1006.4 |
| 20260506143745 | 13 | 68 | 3.2 | 17.7 | 0.00 | 21.49 | 2.92 | 89 | 1006.4 |
| 20260506143224 | 12 | 42 | 4.8 | 17.7 | 0.00 | 21.49 | 2.92 | 89 | 1006.3 |
| 20260506142742 | 12 | 46 | 9.7 | 25.7 | 0.00 | 21.49 | 2.92 | 89 | 1006.3 |
| 20260506142240 | 12 | 27 | 11.3 | 25.7 | 0.00 | 21.49 | 2.92 | 90 | 1006.3 |
| 20260506141724 | 13 | 33 | 14.5 | 22.5 | 0.10 | 21.49 | 2.92 | 90 | 1006.4 |
| 20260506141237 | 13 | 348 | 14.5 | 22.5 | 0.30 | 21.49 | 2.92 | 91 | 1006.4 |
| 20260506140736 | 13 | 60 | 6.4 | 14.5 | 0.61 | 21.49 | 2.92 | 92 | 1006.4 |
| 20260506140234 | 13 | 96 | 8.0 | 19.3 | 0.89 | 21.49 | 2.92 | 92 | 1006.5 |
| 20260506135738 | 13 | 360 | 11.3 | 20.9 | 1.80 | 22.10 | 2.92 | 93 | 1006.4 |
| 20260506135236 | 13 | 5 | 11.3 | 20.9 | 2.31 | 22.10 | 2.92 | 92 | 1006.4 |
| 20260506134750 | 13 | 320 | 9.7 | 19.3 | 3.71 | 22.10 | 2.92 | 93 | 1006.3 |
| 20260506134249 | 13 | 321 | 11.3 | 17.7 | 4.09 | 22.10 | 2.92 | 94 | 1006.3 |
| 20260506133745 | 12 | 338 | 8.0 | 16.1 | 4.29 | 22.10 | 2.92 | 94 | 1006.5 |
| 20260506133241 | 12 | 84 | 3.2 | 12.9 | 4.39 | 22.10 | 2.92 | 93 | 1006.7 |
| 20260506132759 | 12 | 32 | 6.4 | 12.9 | 4.39 | 22.10 | 2.92 | 93 | 1006.6 |
| 20260506132233 | 11 | 24 | 8.0 | 14.5 | 4.39 | 22.10 | 2.92 | 93 | 1006.8 |
| 20260506131730 | 11 | 336 | 6.4 | 14.5 | 4.29 | 22.00 | 2.90 | 92 | 1006.8 |
| 20260506131230 | 11 | 49 | 1.6 | 6.4 | 4.09 | 21.79 | 2.84 | 91 | 1006.9 |
| 20260506130728 | 11 | 33 | 3.2 | 16.1 | 3.81 | 21.49 | 2.77 | 91 | 1006.8 |
| 20260506130228 | 11 | 331 | 9.7 | 17.7 | 3.40 | 21.11 | 2.67 | 90 | 1006.8 |
| 20260506125726 | 11 | 360 | 12.9 | 25.7 | 2.49 | 20.50 | 2.44 | 90 | 1006.6 |
| 20260506125224 | 11 | 340 | 17.7 | 25.7 | 2.01 | 19.99 | 2.31 | 89 | 1006.5 |
| 20260506124723 | 11 | 304 | 17.7 | 25.7 | 0.61 | 18.59 | 1.96 | 88 | 1006.6 |
| 20260506124223 | 12 | 313 | 16.1 | 22.5 | 0.20 | 18.21 | 1.85 | 87 | 1006.8 |
| 20260506123742 | 12 | 348 | 14.5 | 25.7 | 0.00 | 18.01 | 1.80 | 85 | 1006.7 |
| 20260506123242 | 13 | 325 | 14.5 | 29.0 | 0.00 | 18.01 | 1.80 | 83 | 1006.6 |
| 20260506122741 | 15 | 323 | 20.9 | 29.0 | 0.00 | 18.01 | 1.80 | 86 | 1006.6 |
| 20260506122234 | 16 | 115 | 3.2 | 22.5 | 0.00 | 18.01 | 1.80 | 88 | 1006.4 |
| 20260506121731 | 16 | 155 | 12.9 | 25.7 | 0.00 | 18.01 | 1.80 | 88 | 1006.2 |
| 20260506121229 | 15 | 125 | 17.7 | 25.7 | 0.00 | 18.01 | 1.80 | 88 | 1006.1 |
| 20260506120735 | 15 | 119 | 6.4 | 16.1 | 0.00 | 18.01 | 1.80 | 87 | 1006.1 |
| 20260506120253 | 16 | 153 | 6.4 | 16.1 | 0.00 | 18.01 | 1.80 | 89 | 1006.1 |
| 20260506115729 | 16 | 172 | 11.3 | 16.1 | 0.00 | 18.59 | 1.80 | 89 | 1006.1 |
| 20260506115229 | 16 | 175 | 4.8 | 16.1 | 0.10 | 18.59 | 1.80 | 88 | 1005.9 |
| 20260506114728 | 16 | 117 | 6.4 | 14.5 | 0.30 | 18.59 | 1.80 | 90 | 1005.9 |
| 20260506114259 | 15 | 86 | 6.4 | 16.1 | 0.30 | 18.59 | 1.80 | 91 | 1006.0 |
| 20260506113749 | 15 | 122 | 9.7 | 27.4 | 0.30 | 18.59 | 1.80 | 90 | 1006.2 |
| 20260506113226 | 15 | 144 | 12.9 | 27.4 | 0.30 | 18.59 | 1.80 | 90 | 1006.2 |
| 20260506112724 | 15 | 140 | 12.9 | 25.7 | 0.30 | 18.59 | 1.80 | 89 | 1006.0 |
| 20260506112243 | 15 | 156 | 17.7 | 25.7 | 0.30 | 18.59 | 1.80 | 91 | 1006.1 |
| 20260506111741 | 15 | 162 | 11.3 | 17.7 | 0.30 | 18.59 | 1.80 | 92 | 1006.1 |
| 20260506111239 | 15 | 149 | 8.0 | 22.5 | 0.30 | 18.59 | 1.80 | 92 | 1006.2 |
| 20260506110736 | 15 | 153 | 14.5 | 22.5 | 0.30 | 18.59 | 1.80 | 92 | 1006.2 |
| 20260506110235 | 14 | 117 | 12.9 | 22.5 | 0.30 | 18.59 | 1.80 | 93 | 1006.2 |
| 20260506105735 | 13 | 129 | 11.3 | 25.7 | 0.30 | 19.20 | 1.80 | 92 | 1006.2 |
| 20260506105233 | 13 | 113 | 14.5 | 25.7 | 0.20 | 19.10 | 1.78 | 92 | 1006.2 |
| 20260506104746 | 13 | 138 | 16.1 | 30.6 | 0.00 | 18.90 | 1.73 | 92 | 1006.4 |
| 20260506104242 | 13 | 81 | 12.9 | 30.6 | 0.00 | 18.90 | 1.73 | 92 | 1006.2 |
| 20260506103740 | 13 | 80 | 14.5 | 27.4 | 0.00 | 18.90 | 1.73 | 92 | 1006.4 |
| 20260506103239 | 13 | 122 | 8.0 | 19.3 | 0.00 | 18.90 | 1.73 | 92 | 1006.5 |
| 20260506102734 | 13 | 131 | 12.9 | 29.0 | 0.00 | 18.90 | 1.73 | 92 | 1006.6 |
| 20260506102241 | 13 | 100 | 14.5 | 29.0 | 0.00 | 18.90 | 1.73 | 92 | 1006.4 |
| 20260506101738 | 13 | 103 | 12.9 | 22.5 | 0.00 | 18.90 | 1.73 | 93 | 1006.5 |
| 20260506101234 | 13 | 101 | 12.9 | 22.5 | 0.00 | 18.90 | 1.73 | 93 | 1006.5 |
| 20260506100732 | 13 | 39 | 8.0 | 22.5 | 0.00 | 18.90 | 1.73 | 93 | 1006.4 |
| 20260506100229 | 13 | 113 | 9.7 | 22.5 | 0.00 | 18.90 | 1.73 | 93 | 1006.5 |
| 20260506095743 | 13 | 116 | 16.1 | 33.8 | 0.00 | 19.81 | 1.73 | 93 | 1006.5 |
| 20260506095310 | 13 | 117 | 11.3 | 30.6 | 0.00 | 19.81 | 1.73 | 93 | 1006.5 |
| 20260506094747 | 13 | 134 | 19.3 | 30.6 | 0.00 | 19.81 | 1.73 | 94 | 1006.3 |
| 20260506094226 | 13 | 131 | 16.1 | 29.0 | 0.00 | 19.81 | 1.73 | 94 | 1006.3 |
| 20260506093743 | 13 | 147 | 12.9 | 24.1 | 0.00 | 19.81 | 1.73 | 94 | 1006.4 |
| 20260506093239 | 13 | 127 | 12.9 | 29.0 | 0.00 | 19.81 | 1.73 | 94 | 1006.4 |
| 20260506092738 | 13 | 113 | 12.9 | 29.0 | 0.00 | 19.81 | 1.73 | 94 | 1006.3 |
| 20260506092235 | 13 | 108 | 12.9 | 27.4 | 0.00 | 19.81 | 1.73 | 95 | 1006.4 |
| 20260506091754 | 13 | 87 | 17.7 | 27.4 | 0.00 | 19.81 | 1.73 | 95 | 1006.4 |
| 20260506091226 | 13 | 67 | 11.3 | 27.4 | 0.00 | 19.81 | 1.73 | 95 | 1006.3 |
| 20260506090728 | 12 | 128 | 12.9 | 29.0 | 0.00 | 19.81 | 1.73 | 95 | 1006.3 |
| 20260506090227 | 12 | 105 | 17.7 | 29.0 | 0.00 | 19.81 | 1.73 | 95 | 1006.3 |
| 20260506085726 | 13 | 109 | 9.7 | 22.5 | 0.00 | 19.89 | 1.73 | 95 | 1006.2 |
| 20260506085227 | 13 | 113 | 11.3 | 29.0 | 0.00 | 19.89 | 1.73 | 95 | 1006.2 |
| 20260506084726 | 13 | 142 | 16.1 | 27.4 | 0.00 | 19.89 | 1.73 | 95 | 1006.2 |
| 20260506084225 | 12 | 107 | 17.7 | 27.4 | 0.00 | 19.89 | 1.73 | 95 | 1006.2 |
| 20260506083733 | 12 | 85 | 11.3 | 30.6 | 0.00 | 19.89 | 1.73 | 95 | 1006.4 |
| 20260506083251 | 12 | 117 | 17.7 | 30.6 | 0.00 | 19.89 | 1.73 | 95 | 1006.3 |
| 20260506082731 | 12 | 71 | 9.7 | 27.4 | 0.00 | 19.89 | 1.73 | 96 | 1006.6 |
| 20260506082230 | 12 | 122 | 14.5 | 27.4 | 0.00 | 19.89 | 1.73 | 95 | 1006.6 |
| 20260506081729 | 12 | 146 | 14.5 | 30.6 | 0.10 | 19.89 | 1.73 | 96 | 1006.7 |
| 20260506081224 | 13 | 121 | 11.3 | 25.7 | 0.10 | 19.89 | 1.73 | 96 | 1006.6 |
| 20260506080724 | 13 | 137 | 14.5 | 27.4 | 0.10 | 19.89 | 1.73 | 96 | 1006.5 |
| 20260506080242 | 12 | 105 | 14.5 | 30.6 | 0.10 | 19.89 | 1.73 | 96 | 1006.5 |
| 20260506073236 | 12 | 125 | 12.9 | 30.6 | 0.20 | 20.29 | 1.73 | 96 | 1006.6 |
| 20260506072737 | 13 | 101 | 11.3 | 24.1 | 0.20 | 20.29 | 1.73 | 96 | 1006.7 |
| 20260506072233 | 13 | 109 | 12.9 | 24.1 | 0.20 | 20.29 | 1.73 | 96 | 1006.6 |
| 20260506071727 | 12 | 126 | 9.7 | 20.9 | 0.10 | 20.19 | 1.70 | 96 | 1006.6 |
| 20260506071224 | 12 | 112 | 9.7 | 27.4 | 0.20 | 20.19 | 1.70 | 96 | 1006.6 |
| 20260506070723 | 12 | 109 | 16.1 | 27.4 | 0.20 | 20.19 | 1.70 | 96 | 1006.7 |
| 20260506070243 | 12 | 148 | 12.9 | 25.7 | 0.20 | 20.19 | 1.70 | 96 | 1006.7 |
| 20260506062237 | 12 | 55 | 9.7 | 27.4 | 0.10 | 22.40 | 1.68 | 96 | 1007.0 |
| 20260506061735 | 12 | 121 | 14.5 | 27.4 | 0.10 | 22.40 | 1.68 | 96 | 1007.1 |
| 20260506061234 | 12 | 94 | 9.7 | 17.7 | 0.00 | 22.30 | 1.65 | 96 | 1007.0 |
| 20260506060751 | 12 | 101 | 6.4 | 19.3 | 0.10 | 22.30 | 1.65 | 96 | 1006.9 |
| 20260506060250 | 12 | 129 | 11.3 | 19.3 | 0.10 | 22.30 | 1.65 | 96 | 1007.0 |